ATLAS 5 CENTAUR DEB, 44845

Orbit data source: Space-Track

ATLAS 5 CENTAUR DEB, 44845 is space debris in HEO originally from a launch on Wed, 17 Sep 2014 UTC launched from the Air Force Eastern Test Range (AFETR). Debris objects in space refer to the collection of defunct objects orbiting the Earth. Examples of debris include non-operational satellites, rocket bodies, and fragments generated from explosions, collisions, or faulty payload assembly.

Loading next visibility...
Identifier
44845, 2014-055CD
Orbit
HEO
Country
Flag of USUS
Related business
Flag of USUnited Launch Alliance/Lockheed Martin (US)
Manufacturer
Unknown
Mission
Spacecraft
Bus & Motor
Unknown
Mass
Unknown
Launch date (UTC)
2014-09-17 (12 years ago)
Launch vehicle
Unknown
Launch site
Air Force Eastern Test Range (AFETR)
Object type
Payload
Rocket body
Debris
Shape & HBR
Unknown shape, 1.1 m
Radar Cross Section
Small (<0.1 m²)

Expand to show TLE details & history
Last TLE update: 1 day ago

TLE from 1 day ago
0 ATLAS 5 CENTAUR DEB
1 44845U 14055CD  26144.15538040 -.00000012  00000-0  00000-0 0  9997
2 44845  20.4195 130.1714 4992692 188.1187 159.1267  1.84917804 43987
Epoch: 2026-05-24T03:43Z
TLE epoch observation values (Epoch: 2026-05-24T03:43:44.866Z)
Latitude
-0.00001°
Longitude
-167.55011°
Altitude
35,226.427 km
Speed
2.224 km/s
True Right ascension
08h 40m 35s
True Declination
0° 00' 00"
Sunlit
Object was in daylight at epoch
Visualization orbit readout
Latitude
Unknown
Longitude
Unknown
Altitude
Unknown
Speed
Unknown
Apparent Right ascension
Unknown
Apparent Declination
Unknown
Sunlit
N/A
Visualization observer readout
Local Sidereal Time
18:35:48
Azimuth
Unknown
Elevation
Unknown
Doppler factor
Unknown
Orbital elements
Apogee altitude
35,661.583 km
Perigee altitude
7,662.425 km
Semi-major axis
28,040.141 km
Eccentricity
0.49927
Inclination
20.4195°
RAAN
130.1714°
Arg. of periapsis
188.1187°
True anomaly
171.90086°
Mean anomaly
159.1267°
Eccentric anomaly
166.03174°
Mean motion
0.46225 °/min
Orbital period
778.81 mins
BSTAR
0
Loading maneuver chart data...
Computing Atmospheric mass density...

Documentation

Showing up to 5 results
|